Flag for Austria Weather past 2 weeks in Schwechat, Lower Austria, Austria

Now
52 °F

Light rain. Passing clouds.


Feels Like: 47 °F
Forecast: 43 / 54 °F
Wind: 16 mph from Southwest

Location: Vienna Schwechat-Flughafen Airport

Current Time: Mar 29, 2015 at 10:54:55 PM

Latest Report: Mar 29, 2015 at 10:20 PM


Visibility: N/A

Pressure: 29.65 "Hg

Humidity: 77%

Dew point: 45 °F

Location of SchwechatLocation

Historic Weather in Schwechat — Graph

°F

Schwechat temperature yesterday

Maximum temperature yesterday: 50 °F (at 11:50 AM)
Minimum temperature yesterday: 39 °F (at 11:50 PM)
Average temperature yesterday: 46 °F

Past Weeks' High & Low Weather Summary

 TemperatureHumidityPressure
High63 °F (Mar 26, 2:50 PM)100% (Mar 15, 5:50 AM)30.51 "Hg (Mar 15, 5:50 AM)
Low27 °F (Mar 20, 4:50 AM)33% (Mar 18, 1:50 PM)29.68 "Hg (Mar 29, 5:20 PM)
Average45 °F67%30.10 "Hg
* Reported Mar 14 8:20 PM — Mar 29 9:20 PM, Schwechat, Weather by CustomWeather, © 2015

Note: Actual official high and low records may vary slightly from our data, if they occured in-between our weather recording intervals... More about our weather records

Advertising

Schwechat weather history for previous 24 hours

 ConditionsComfort  
Time TempWeatherWind HumidityBarometerVisibility
9:20 PM
Sun, Mar 29
52 °FPassing clouds.15 mph77%29.68 "HgN/A
8:50 PM52 °FLight rain. Passing clouds.9 mph82%29.71 "HgN/A
8:20 PM52 °FLight rain. Passing clouds.12 mph82%29.71 "HgN/A
7:50 PM52 °FLight rain. Partly sunny.10 mph82%29.68 "HgN/A
7:20 PM54 °FLight rain. Partly sunny.8 mph77%29.68 "HgN/A
6:50 PM54 °FLight rain. Partly sunny.8 mph77%29.68 "HgN/A
6:20 PM55 °FLight rain. Partly sunny.8 mph67%29.68 "HgN/A
5:50 PM55 °FPartly sunny.8 mph67%29.68 "HgN/A
5:20 PM55 °FPartly sunny.8 mph67%29.68 "HgN/A
4:50 PM55 °FPartly sunny.7 mph67%29.71 "HgN/A
4:20 PM57 °FPartly sunny.12 mph59%29.71 "HgN/A
3:50 PM57 °FPartly sunny.14 mph59%29.74 "HgN/A
3:20 PM57 °FPartly sunny.16 mph59%29.74 "HgN/A
2:50 PM57 °FPartly sunny.16 mph59%29.74 "HgN/A
2:20 PM57 °FBroken clouds.13 mph63%29.77 "HgN/A
1:50 PM54 °FBroken clouds.10 mph72%29.77 "HgN/A
1:20 PM52 °FBroken clouds.8 mph72%29.80 "HgN/A
12:50 PM52 °FBroken clouds.8 mph72%29.80 "HgN/A
12:20 PM52 °FSprinkles. Partly sunny.9 mph77%29.80 "HgN/A
11:50 AM50 °FPartly sunny.9 mph76%29.83 "HgN/A
11:20 AM48 °FSprinkles. Partly sunny.9 mph82%29.83 "HgN/A
10:50 AM46 °FSprinkles. Partly sunny.9 mph82%29.86 "HgN/A
10:20 AM45 °FPartly sunny.10 mph81%29.86 "HgN/A
9:50 AM41 °FLight rain. Partly sunny.10 mph87%29.89 "HgN/A
9:20 AM39 °FBroken clouds.9 mph87%29.89 "HgN/A
8:50 AM39 °FLight rain. Broken clouds.7 mph87%29.92 "Hg6 mi
8:20 AM39 °FLight rain. Broken clouds.8 mph81%29.92 "HgN/A
7:50 AM37 °FLight rain. Broken clouds.7 mph87%29.92 "HgN/A
7:20 AM36 °FLight rain. Passing clouds.8 mph87%29.92 "HgN/A
6:50 AM36 °FLight rain. Passing clouds.7 mph87%29.92 "HgN/A
6:20 AM36 °FLight rain. Passing clouds.6 mph81%29.92 "HgN/A
5:50 AM36 °FPassing clouds.3 mph81%29.95 "HgN/A
5:20 AM32 °FPassing clouds.3 mph87%29.95 "HgN/A
4:50 AM32 °FClear.6 mph87%29.95 "Hg10 mi
4:20 AM30 °FClear.8 mph86%29.95 "Hg10 mi
3:50 AM34 °FPassing clouds.3 mph75%29.95 "HgN/A
3:20 AM37 °FClear.7 mph70%29.98 "Hg10 mi
1:50 AM36 °FClear.5 mph75%29.98 "Hg10 mi
1:20 AM37 °FClear.7 mph70%29.98 "Hg10 mi
12:50 AM37 °FClear.7 mph70%29.98 "Hg10 mi
12:20 AM39 °FClear.7 mph70%29.98 "Hg10 mi
11:50 PM
Sat, Mar 28
39 °FClear.6 mph70%30.01 "Hg10 mi
11:20 PM43 °FClear.6 mph61%30.01 "Hg10 mi
10:50 PM43 °FPassing clouds.5 mph61%30.01 "HgN/A
10:20 PM43 °FClear.5 mph61%30.01 "Hg10 mi
Weather by CustomWeather, © 2015

See weather overviewHow to use our weather pages